RYR6882 LEMH-LEBL

Flight info

Callsign RYR6882
Flight time 0h 31m
Altitude 18000
Route LUNIK Q255 OSTUR
Aircraft B38M/M-SDE1FGHILORVWXY/HB1

Departure

Time 2026-04-10 22:13
Airport Menorca Airport (LEMH)

Arrival

Time 2026-04-10 22:45
Airport Josep Tarradellas Barcelona-El Prat Airport (LEBL)
Time Latitude Longitude Altitude Speed Heading
2026-04-10 21:53 39.86528 4.22419 299 ft 0 kts 98°
2026-04-10 22:05 39.86530 4.22401 300 ft 4 kts 99°
2026-04-10 22:05 39.86534 4.22369 297 ft 4 kts 98°
2026-04-10 22:05 39.86531 4.22339 297 ft 4 kts 49°
2026-04-10 22:05 39.86510 4.22326 300 ft 4 kts 10°
2026-04-10 22:06 39.86501 4.22324 300 ft 0 kts
2026-04-10 22:09 39.86507 4.22325 300 ft 4 kts
2026-04-10 22:10 39.86584 4.22342 299 ft 19 kts
2026-04-10 22:10 39.86749 4.22376 297 ft 27 kts
2026-04-10 22:10 39.86899 4.22392 301 ft 16 kts 327°
2026-04-10 22:10 39.86933 4.22269 302 ft 14 kts 305°
2026-04-10 22:11 39.87017 4.22259 304 ft 14 kts
2026-04-10 22:11 39.87154 4.22288 309 ft 26 kts
2026-04-10 22:11 39.87330 4.22324 313 ft 16 kts
2026-04-10 22:11 39.87393 4.22242 314 ft 15 kts 279°
2026-04-10 22:12 39.87371 4.22114 314 ft 8 kts 243°
2026-04-10 22:12 39.87313 4.22082 314 ft 10 kts 187°
2026-04-10 22:12 39.87291 4.22077 314 ft 0 kts 189°
2026-04-10 22:12 39.87216 4.22066 315 ft 42 kts 187°
2026-04-10 22:13 39.86642 4.21954 301 ft 123 kts 189°
2026-04-10 22:13 39.85582 4.21764 426 ft 177 kts 187°
2026-04-10 22:13 39.84276 4.21605 1143 ft 186 kts 184°
2026-04-10 22:13 39.82961 4.21336 2047 ft 201 kts 191°
2026-04-10 22:14 39.81510 4.20963 2508 ft 227 kts 191°
2026-04-10 22:14 39.79884 4.20544 3020 ft 248 kts 197°
2026-04-10 22:14 39.78411 4.19304 3600 ft 261 kts 234°
2026-04-10 22:14 39.77794 4.17140 4581 ft 260 kts 268°
2026-04-10 22:15 39.78101 4.14825 5415 ft 263 kts 295°
2026-04-10 22:15 39.79203 4.12953 6340 ft 265 kts 319°
2026-04-10 22:15 39.80602 4.11370 7178 ft 268 kts 317°
2026-04-10 22:15 39.81982 4.09731 8070 ft 269 kts 317°
2026-04-10 22:16 39.83367 4.08086 8978 ft 270 kts 316°
2026-04-10 22:16 39.84758 4.06432 9874 ft 272 kts 316°
2026-04-10 22:16 39.86172 4.04748 10512 ft 283 kts 316°
2026-04-10 22:16 39.87658 4.02942 10894 ft 303 kts 315°
2026-04-10 22:17 39.89237 4.01010 11323 ft 318 kts 315°
2026-04-10 22:17 39.90877 3.99010 11952 ft 326 kts 315°
2026-04-10 22:17 39.92549 3.96995 12789 ft 329 kts 315°
2026-04-10 22:17 39.94247 3.94958 13579 ft 334 kts 315°
2026-04-10 22:18 39.95971 3.92898 14346 ft 339 kts 315°
2026-04-10 22:18 39.97726 3.90811 15056 ft 345 kts 316°
2026-04-10 22:18 39.99513 3.88674 15762 ft 350 kts 316°
2026-04-10 22:18 40.01320 3.86518 16502 ft 355 kts 316°
2026-04-10 22:19 40.03153 3.84328 17205 ft 360 kts 316°
2026-04-10 22:19 40.05011 3.82107 17834 ft 366 kts 316°
2026-04-10 22:19 40.06900 3.79838 18010 ft 374 kts 315°
2026-04-10 22:19 40.08819 3.77510 18011 ft 387 kts 315°
2026-04-10 22:20 40.10806 3.75104 18021 ft 392 kts 315°
2026-04-10 22:20 40.12815 3.72683 18039 ft 394 kts 315°
2026-04-10 22:20 40.14834 3.70260 18049 ft 394 kts 315°
2026-04-10 22:20 40.16855 3.67839 18050 ft 394 kts 316°
2026-04-10 22:21 40.18876 3.65416 18050 ft 394 kts 316°
2026-04-10 22:21 40.20902 3.62989 18054 ft 395 kts 315°
2026-04-10 22:21 40.22924 3.60561 18053 ft 395 kts 315°
2026-04-10 22:21 40.24950 3.58127 18051 ft 395 kts 315°
2026-04-10 22:22 40.26323 3.56477 18051 ft 395 kts 315°
2026-04-10 22:22 40.28319 3.54076 18051 ft 395 kts 315°
2026-04-10 22:22 40.30345 3.51638 18051 ft 395 kts 315°
2026-04-10 22:22 40.32367 3.49202 18048 ft 395 kts 315°
2026-04-10 22:23 40.34394 3.46758 18048 ft 395 kts 315°
2026-04-10 22:23 40.36415 3.44318 18048 ft 395 kts 315°
2026-04-10 22:23 40.38437 3.41877 18047 ft 395 kts 315°
2026-04-10 22:23 40.40458 3.39433 18047 ft 395 kts 315°
2026-04-10 22:24 40.42482 3.36984 18049 ft 395 kts 315°
2026-04-10 22:24 40.44505 3.34536 18047 ft 395 kts 315°
2026-04-10 22:24 40.46524 3.32088 18049 ft 395 kts 315°
2026-04-10 22:24 40.48541 3.29641 18044 ft 395 kts 315°
2026-04-10 22:25 40.50564 3.27185 18044 ft 395 kts 315°
2026-04-10 22:25 40.52585 3.24730 18046 ft 395 kts 315°
2026-04-10 22:25 40.54602 3.22277 18046 ft 395 kts 315°
2026-04-10 22:25 40.56622 3.19818 18046 ft 395 kts 315°
2026-04-10 22:26 40.58638 3.17362 18046 ft 395 kts 315°
2026-04-10 22:26 40.60665 3.14913 18043 ft 396 kts 317°
2026-04-10 22:26 40.62621 3.12389 18038 ft 393 kts 307°
2026-04-10 22:26 40.64354 3.09603 18041 ft 394 kts 309°
2026-04-10 22:27 40.66142 3.06899 18053 ft 384 kts 310°
2026-04-10 22:27 40.68089 3.04468 16910 ft 391 kts 327°
2026-04-10 22:27 40.70316 3.02781 15850 ft 370 kts 326°
2026-04-10 22:27 40.72519 3.00349 12644 ft 445 kts 318°
2026-04-10 22:28 40.74876 2.97779 12705 ft 418 kts 319°
2026-04-10 22:28 40.76988 2.95489 13129 ft 376 kts 320°
2026-04-10 22:28 40.79007 2.93434 12811 ft 367 kts 321°
2026-04-10 22:28 40.81004 2.91408 12516 ft 357 kts 320°
2026-04-10 22:29 40.82944 2.89448 12332 ft 346 kts 321°
2026-04-10 22:29 40.84886 2.87571 12059 ft 337 kts 322°
2026-04-10 22:29 40.86744 2.85784 11673 ft 333 kts 322°
2026-04-10 22:29 40.88604 2.83984 11270 ft 330 kts 322°
2026-04-10 22:30 40.90440 2.82199 11000 ft 323 kts 322°
2026-04-10 22:30 40.92224 2.80466 10852 ft 313 kts 322°
2026-04-10 22:30 40.93948 2.78791 10716 ft 302 kts 322°
2026-04-10 22:30 40.95610 2.77177 10614 ft 291 kts 322°
2026-04-10 22:31 40.97201 2.75601 10497 ft 280 kts 317°
2026-04-10 22:31 40.98305 2.73597 10448 ft 265 kts 291°
2026-04-10 22:31 40.98561 2.71283 10420 ft 248 kts 267°
2026-04-10 22:31 40.98295 2.69069 10425 ft 243 kts 262°
2026-04-10 22:32 40.97971 2.66791 10289 ft 258 kts 262°
2026-04-10 22:32 40.97629 2.64438 10069 ft 262 kts 262°
2026-04-10 22:32 40.97281 2.62080 9843 ft 261 kts 262°
2026-04-10 22:32 40.96934 2.59722 9608 ft 261 kts 262°
2026-04-10 22:33 40.96591 2.57369 9363 ft 260 kts 262°
2026-04-10 22:33 40.96252 2.55021 9128 ft 260 kts 262°
2026-04-10 22:33 40.95917 2.52673 8893 ft 259 kts 262°
2026-04-10 22:33 40.95584 2.50328 8656 ft 259 kts 262°
2026-04-10 22:34 40.95254 2.47983 8379 ft 260 kts 262°
2026-04-10 22:34 40.94928 2.45634 8107 ft 260 kts 262°
2026-04-10 22:34 40.94605 2.43278 7840 ft 260 kts 262°
2026-04-10 22:34 40.94287 2.40925 7593 ft 259 kts 262°
2026-04-10 22:35 40.93974 2.38582 7361 ft 258 kts 262°
2026-04-10 22:35 40.93686 2.36409 7159 ft 258 kts 262°
2026-04-10 22:35 40.93380 2.34077 6930 ft 257 kts 262°
2026-04-10 22:35 40.93077 2.31746 6703 ft 257 kts 262°
2026-04-10 22:36 40.93043 2.29405 6470 ft 255 kts 278°
2026-04-10 22:36 40.93359 2.27106 6241 ft 255 kts 282°
2026-04-10 22:36 40.93719 2.24813 6000 ft 254 kts 282°
2026-04-10 22:36 40.94080 2.22524 5764 ft 254 kts 282°
2026-04-10 22:37 40.94439 2.20263 5538 ft 254 kts 282°
2026-04-10 22:37 40.94807 2.17978 5304 ft 254 kts 282°
2026-04-10 22:37 40.95178 2.15691 5070 ft 254 kts 282°
2026-04-10 22:37 40.95551 2.13411 4837 ft 254 kts 282°
2026-04-10 22:38 40.95930 2.11133 4602 ft 253 kts 282°
2026-04-10 22:38 40.96310 2.08861 4358 ft 252 kts 282°
2026-04-10 22:38 40.96699 2.06598 4062 ft 253 kts 282°
2026-04-10 22:38 40.97096 2.04336 3763 ft 252 kts 282°
2026-04-10 22:39 40.97540 2.02089 3438 ft 253 kts 290°
2026-04-10 22:39 40.98564 2.00203 3105 ft 257 kts 319°
2026-04-10 22:39 41.00172 1.99169 2787 ft 261 kts 345°
2026-04-10 22:39 41.01974 1.98823 2496 ft 261 kts 352°
2026-04-10 22:40 41.03752 1.98568 2357 ft 253 kts 352°
2026-04-10 22:40 41.05479 1.98440 2224 ft 245 kts
2026-04-10 22:40 41.07141 1.98762 2101 ft 238 kts 12°
2026-04-10 22:40 41.08698 1.99373 2034 ft 230 kts 17°
2026-04-10 22:41 41.10216 2.00049 2008 ft 230 kts 18°
2026-04-10 22:41 41.11731 2.00737 1983 ft 231 kts 17°
2026-04-10 22:41 41.13253 2.01427 1988 ft 232 kts 17°
2026-04-10 22:41 41.14776 2.02118 1967 ft 231 kts 17°
2026-04-10 22:42 41.16299 2.02810 1973 ft 232 kts 17°
2026-04-10 22:42 41.17829 2.03504 1968 ft 232 kts 17°
2026-04-10 22:42 41.19339 2.04191 1940 ft 225 kts 17°
2026-04-10 22:42 41.20804 2.04857 1659 ft 221 kts 17°
2026-04-10 22:43 41.22214 2.05498 1382 ft 203 kts 16°
2026-04-10 22:43 41.23485 2.06076 1100 ft 183 kts 17°
2026-04-10 22:43 41.24640 2.06604 885 ft 172 kts 15°
2026-04-10 22:43 41.25751 2.07110 693 ft 167 kts 16°
2026-04-10 22:44 41.26846 2.07599 464 ft 165 kts 15°
2026-04-10 22:44 41.27934 2.08098 221 ft 167 kts 19°
2026-04-10 22:44 41.29019 2.08599 29 ft 159 kts 18°
2026-04-10 22:44 41.29923 2.09008 22 ft 103 kts 18°
2026-04-10 22:45 41.30390 2.09220 23 ft 55 kts 19°
2026-04-10 22:45 41.30601 2.09253 26 ft 22 kts 326°
2026-04-10 22:45 41.30681 2.09143 20 ft 13 kts 283°
2026-04-10 22:45 41.30646 2.09074 21 ft 10 kts 203°
2026-04-10 22:46 41.30575 2.09039 22 ft 12 kts 200°
2026-04-10 22:46 41.30487 2.08999 21 ft 15 kts 198°
2026-04-10 22:46 41.30398 2.08922 20 ft 17 kts 242°
2026-04-10 22:46 41.30344 2.08770 20 ft 20 kts 246°
2026-04-10 22:47 41.30270 2.08552 20 ft 29 kts 245°
2026-04-10 22:47 41.30185 2.08305 21 ft 28 kts 245°
2026-04-10 22:47 41.30098 2.08058 19 ft 31 kts 247°
2026-04-10 22:47 41.30016 2.07812 21 ft 28 kts 245°
2026-04-10 22:48 41.29940 2.07593 18 ft 15 kts 245°
2026-04-10 22:48 41.29960 2.07515 20 ft 8 kts 300°
2026-04-10 22:48 41.29973 2.07441 22 ft 8 kts 315°
2026-04-10 22:48 41.30023 2.07440 24 ft 7 kts 15°
2026-04-10 22:49 41.30033 2.07443 24 ft 1 kts 16°
2026-04-10 22:49 41.30036 2.07444 24 ft 0 kts 16°